Elkins, WV

10:39 AM EDT on September 18, 2019 (GMT -0400)
Elkins-Randolph County

Weather History for KEKN - August, 2019

Change the Weather History Date:

Friday, August 23, 2019

  Actual Average Record
Temperature  
Mean Temperature 64 °F 69 °F  
Max Temperature 70 °F 80 °F 89 °F (1918)
Min Temperature 56 °F 57 °F 42 °F (1981)
Degree Days  
Heating Degree Days 2 1  
Month to date heating degree days 2 8  
Since 1 June heating degree days 41 75  
Since 1 July heating degree days 2 20  
Cooling Degree Days 0 4  
Month to date cooling degree days 181 112  
Year to date cooling degree days 651 393  
Since 1 June cooling degree days 568 370  
Growing Degree Days 14 (Base 50)    
Moisture  
Dew Point 61 °F    
Average Humidity 87    
Maximum Humidity 93    
Minimum Humidity 68    
Precipitation  
Precipitation 2.00 in 0.12 in 2.11 in (1989)
Month to date precipitation 5.50 2.94  
Year to date precipitation 37.12 31.91  
Sea Level Pressure  
Sea Level Pressure 30.09 in    
Wind  
Wind Speed 3 mph ()    
Max Wind Speed 9 mph    
Max Gust Speed 14 mph    
Visibility 5.1 miles    
Events Rain    
T = Trace of Precipitation, MM = Missing Value Source: Averaged Metar Reports

Daily Weather History Graph

Daily Weather History Graph

Search for Another Location

Airport or City:

Astronomy

Aug. 23, 2019 Rise Set
Actual Time 6:40 AM EDT 8:03 PM EDT
Civil Twilight 6:12 AM EDT 8:31 PM EDT
Nautical Twilight 5:38 AM EDT 9:04 PM EDT
Astronomical Twilight 5:03 AM EDT 9:39 PM EDT
Moon No Moon Rise 2:11 PM EDT (8/23)
Length of Visible Light 14h 19m
Length of Day
13h 23m
Waning Gibbous, 50% of the Moon is Illuminated
Aug 23
Waning Gibbous
Aug 30
New
Sep 5
First Quarter
Sep 14
Full
Sep 21
Last Quarter

Hourly Weather History & Observations

Time (EDT) Temp. Dew Point Humidity Pressure Visibility Wind Dir Wind Speed Gust Speed Precip Events Conditions
12:27 AM 71.1 °F 66.9 °F 87% 30.06 in 9.0 mi Calm Calm - N/A   Overcast
12:51 AM 70.0 °F 66.9 °F 90% 30.02 in 8.0 mi Calm Calm - 0.00 in Rain Light Rain
12:58 AM 70.0 °F 66.9 °F 90% 30.06 in 4.0 mi Calm Calm - 0.02 in Rain Rain
1:51 AM 69.1 °F 66.9 °F 93% 30.01 in 4.0 mi Calm Calm - 0.15 in Rain Light Rain
2:51 AM 70.0 °F 66.0 °F 87% 29.99 in 7.0 mi Calm Calm - 0.03 in Rain Light Rain
3:04 AM 70.0 °F 66.0 °F 87% 30.04 in 7.0 mi Calm Calm - 0.00 in Rain Light Rain
3:32 AM 70.0 °F 66.9 °F 90% 30.03 in 6.0 mi Calm Calm - 0.00 in Rain Light Rain
3:51 AM 70.0 °F 66.0 °F 87% 29.99 in 6.0 mi SE 3.5 mph - 0.02 in Rain Light Rain
4:47 AM 69.8 °F 66.2 °F 88% 30.04 in 5.0 mi Calm Calm - 0.01 in Rain Rain
4:51 AM 69.1 °F 66.0 °F 90% 29.99 in 4.0 mi Calm Calm - 0.01 in Rain Light Rain
5:32 AM 69.1 °F 66.0 °F 90% 30.04 in 2.5 mi SSW 3.5 mph - 0.10 in Rain Rain
5:39 AM 69.1 °F 66.0 °F 90% 30.04 in 1.2 mi Calm Calm - 0.18 in Rain Heavy Rain
5:46 AM 69.8 °F 66.2 °F 88% 30.04 in 3.0 mi SE 3.5 mph - 0.21 in Rain Light Rain
5:51 AM 69.1 °F 66.0 °F 90% 30.00 in 9.0 mi SE 3.5 mph - 0.21 in Rain Light Rain
6:51 AM 69.1 °F 66.0 °F 90% 30.01 in 8.0 mi Calm Calm - 0.00 in Rain Light Rain
7:07 AM 69.1 °F 66.0 °F 90% 30.05 in 1.8 mi Calm Calm - 0.06 in Rain Heavy Rain
7:19 AM 69.1 °F 66.0 °F 90% 30.05 in 2.5 mi Calm Calm - 0.12 in Rain Heavy Rain
7:32 AM 69.1 °F 64.9 °F 87% 30.06 in 1.8 mi Variable 3.5 mph - 0.20 in Rain Heavy Rain
7:51 AM 66.0 °F 63.0 °F 90% 30.04 in 1.8 mi NNW 6.9 mph - 0.35 in Rain Heavy Rain
7:58 AM 64.9 °F 62.1 °F 90% 30.07 in 1.5 mi Variable 3.5 mph - 0.04 in Rain Heavy Rain
8:10 AM 64.9 °F 62.1 °F 90% 30.07 in 2.0 mi North 3.5 mph - 0.09 in Rain Rain
8:13 AM 64.9 °F 62.1 °F 90% 30.07 in 1.8 mi North 5.8 mph - 0.10 in Rain Heavy Rain
8:26 AM 64.0 °F 61.0 °F 90% 30.08 in 2.0 mi NW 3.5 mph - 0.17 in Rain Rain
8:41 AM 64.0 °F 61.0 °F 90% 30.08 in 1.8 mi North 4.6 mph - 0.22 in Rain Heavy Rain
8:45 AM 64.4 °F 60.8 °F 88% 30.08 in 2.0 mi North 3.5 mph - 0.24 in Rain Heavy Rain
8:51 AM 64.0 °F 61.0 °F 90% 30.06 in 3.0 mi NNW 5.8 mph - 0.25 in Rain Light Rain
8:56 AM 64.0 °F 61.0 °F 90% 30.08 in 2.5 mi NNW 6.9 mph - 0.00 in Rain Heavy Rain
9:06 AM 64.0 °F 61.0 °F 90% 30.08 in 1.5 mi Variable 3.5 mph - 0.05 in Rain Heavy Rain
9:36 AM 64.0 °F 61.0 °F 90% 30.08 in 1.0 mi NNW 6.9 mph - 0.27 in Rain Heavy Rain
9:51 AM 64.0 °F 61.0 °F 90% 30.07 in 2.0 mi NW 5.8 mph - 0.37 in Rain Heavy Rain
9:58 AM 64.0 °F 61.0 °F 90% 30.10 in 0.8 mi NW 5.8 mph - 0.06 in Rain Heavy Rain
10:14 AM 63.0 °F 60.1 °F 90% 30.10 in 1.2 mi NNW 8.1 mph - 0.24 in Rain Heavy Rain
10:22 AM 63.0 °F 60.1 °F 90% 30.10 in 3.0 mi NNW 6.9 mph - 0.26 in Rain Rain
10:32 AM 63.0 °F 60.1 °F 90% 30.11 in 2.5 mi NNW 8.1 mph - 0.28 in Rain Heavy Rain
10:36 AM 63.0 °F 60.1 °F 90% 30.11 in 1.2 mi NNW 6.9 mph - 0.32 in Rain Heavy Rain
10:51 AM 63.0 °F 60.1 °F 90% 30.09 in 1.8 mi NNW 6.9 mph - 0.44 in Rain Rain
10:54 AM 63.0 °F 60.1 °F 90% 30.10 in 3.0 mi North 5.8 mph - 0.01 in Rain Rain
11:02 AM 63.0 °F 60.1 °F 90% 30.11 in 5.0 mi NNW 6.9 mph - 0.02 in Rain Rain
11:16 AM 63.0 °F 60.1 °F 90% 30.11 in 3.0 mi North 8.1 mph - 0.06 in Rain Rain
11:51 AM 64.0 °F 60.1 °F 87% 30.09 in 5.0 mi Variable 4.6 mph - 0.11 in Rain Light Rain
12:00 PM 64.0 °F 60.1 °F 87% 30.11 in 5.0 mi NNW 6.9 mph - 0.01 in Rain Rain
12:10 PM 64.0 °F 60.1 °F 87% 30.11 in 4.0 mi NNW 8.1 mph - 0.03 in Rain Rain
12:39 PM 63.0 °F 59.0 °F 87% 30.10 in 10.0 mi NNW 5.8 mph - 0.06 in Rain Light Rain
12:47 PM 64.4 °F 60.8 °F 88% 30.10 in 9.0 mi NW 4.6 mph - 0.06 in Rain Light Rain
12:51 PM 64.0 °F 60.1 °F 87% 30.08 in 10.0 mi NNW 6.9 mph - 0.06 in Rain Light Rain
1:25 PM 64.0 °F 60.1 °F 87% 30.10 in 10.0 mi NNW 8.1 mph - 0.00 in Rain Light Rain
1:51 PM 64.0 °F 60.1 °F 87% 30.07 in 10.0 mi North 4.6 mph - 0.00 in   Overcast
2:09 PM 64.9 °F 60.1 °F 84% 30.10 in 10.0 mi North 6.9 mph - N/A   Overcast
2:16 PM 64.9 °F 60.1 °F 84% 30.11 in 10.0 mi Variable 5.8 mph - N/A   Overcast
2:51 PM 66.0 °F 60.1 °F 81% 30.09 in 10.0 mi Variable 3.5 mph - N/A   Overcast
3:04 PM 64.9 °F 59.0 °F 81% 30.11 in 10.0 mi NNE 5.8 mph - N/A   Overcast
3:26 PM 66.0 °F 59.0 °F 78% 30.11 in 10.0 mi NNW 6.9 mph - N/A   Overcast
3:51 PM 66.9 °F 59.0 °F 76% 30.09 in 10.0 mi NNW 5.8 mph - N/A   Overcast
4:46 PM 66.2 °F 57.2 °F 73% 30.12 in 10.0 mi NNW 5.8 mph - N/A   Overcast
4:51 PM 66.0 °F 57.0 °F 73% 30.10 in 10.0 mi NW 6.9 mph - N/A   Overcast
5:21 PM 66.0 °F 57.0 °F 73% 30.12 in 10.0 mi NNW 6.9 mph - N/A   Overcast
5:51 PM 66.0 °F 55.0 °F 68% 30.11 in 10.0 mi NNW 4.6 mph - N/A   Overcast
6:51 PM 66.0 °F 55.9 °F 70% 30.11 in 10.0 mi NW 3.5 mph - N/A   Overcast
7:51 PM 64.0 °F 57.9 °F 80% 30.12 in 10.0 mi North 3.5 mph - N/A   Scattered Clouds
8:51 PM 60.1 °F 57.0 °F 90% 30.13 in 7.0 mi Calm Calm - N/A   Clear
9:51 PM 60.1 °F 57.0 °F 90% 30.17 in 9.0 mi Calm Calm - N/A   Clear
10:51 PM 57.9 °F 55.0 °F 90% 30.18 in 5.0 mi Calm Calm - N/A   Clear
10:58 PM 57.9 °F 55.0 °F 90% 30.18 in 2.0 mi Calm Calm - N/A   Partly Cloudy
11:05 PM 57.9 °F 55.0 °F 90% 30.18 in 1.2 mi Calm Calm - N/A   Scattered Clouds
11:08 PM 57.9 °F 55.0 °F 90% 30.18 in 0.8 mi Calm Calm - N/A   Mist
11:38 PM 59.0 °F 55.9 °F 90% 30.18 in 1.5 mi Calm Calm - N/A   Overcast
11:51 PM 57.9 °F 55.9 °F 93% 30.19 in 0.8 mi Calm Calm - N/A   Overcast